Location: Unspecified
(49.2170°N, 0.0000°E)
Time: 13:30:57
(UTC+00:00)

Vanguard 3 - All Passes

Search period start: 25 June 2019 00:00
Search period end: 05 July 2019 00:00
Orbit: 508 x 3263 km, 33.3° (Epoch: 24 June)

Date Brightness Start Highest point End Pass type
(mag) Time Alt. Az. Time Alt. Az. Time Alt. Az.
25 Jun - 08:23:34 10° S 08:32:45 17° SSE 08:40:04 10° ESE daylight
25 Jun - 10:33:58 10° SW 10:45:33 28° S 10:53:14 10° ESE daylight
25 Jun - 12:48:20 10° WSW 12:57:31 28° S 13:03:26 10° SE daylight
25 Jun - 15:04:33 10° WSW 15:08:02 14° SSW 15:10:54 10° S daylight
26 Jun - 07:12:39 10° SSE 07:17:52 12° SE 07:22:35 10° SE daylight
26 Jun - 09:18:37 10° SSW 09:30:51 26° SSE 09:39:31 10° ESE daylight
26 Jun - 11:31:59 10° SW 11:43:28 32° S 11:50:46 10° ESE daylight
26 Jun - 13:47:26 10° WSW 13:54:50 23° SSW 13:59:53 10° SSE daylight
27 Jun - 08:04:17 10° SSW 08:15:53 21° SSE 08:24:55 10° ESE daylight
27 Jun - 10:15:47 10° SW 10:28:58 32° S 10:37:36 10° ESE daylight
27 Jun - 12:30:45 10° WSW 12:41:09 30° SSW 12:47:46 10° SE daylight
27 Jun - 14:47:33 10° WSW 14:51:42 14° SW 14:55:02 10° S daylight
28 Jun - 06:51:51 10° S 07:00:51 16° SE 07:08:38 10° ESE daylight
28 Jun - 09:00:06 10° SSW 09:14:04 30° SSE 09:23:53 10° ESE daylight
28 Jun - 11:14:05 10° WSW 11:26:57 35° S 11:35:03 10° ESE daylight
28 Jun - 13:30:05 10° WSW 13:38:27 24° SSW 13:44:06 10° SSE daylight
29 Jun - 07:45:25 10° SSW 07:58:54 25° SSE 08:09:22 10° ESE daylight
29 Jun - 09:57:39 10° SW 10:12:14 36° S 10:21:51 10° ESE daylight
29 Jun - 12:13:05 10° WSW 12:24:40 32° SSW 12:31:59 10° SE daylight
29 Jun - 14:30:29 10° WSW 14:35:17 15° SW 14:39:03 10° S daylight
30 Jun - 06:32:18 10° S 06:43:42 19° SE 06:53:31 10° ESE daylight
30 Jun - 08:41:47 10° SW 08:57:08 34° SSE 09:08:04 10° ESE daylight
30 Jun - 10:56:12 10° WSW 11:10:18 38° S 11:19:14 10° ESE daylight
30 Jun - 13:12:39 10° WSW 13:21:58 25° SSW 13:28:13 10° SSE daylight
01 Jul - 05:22:42 10° SSE 05:28:41 12° SE 05:34:23 10° ESE daylight
01 Jul - 07:26:51 10° SSW 07:41:46 29° SSE 07:53:31 10° ESE daylight
01 Jul - 09:39:37 10° SW 09:55:23 39° S 10:05:56 10° ESE daylight
01 Jul - 11:55:24 10° WSW 12:08:03 34° SSW 12:16:06 10° SE daylight
01 Jul - 14:13:22 10° WSW 14:18:43 15° SW 14:22:56 10° S daylight
02 Jul - 06:13:20 10° S 06:26:25 22° SE 06:37:51 10° ESE daylight
02 Jul - 08:23:37 10° SW 08:40:04 37° SSE 08:52:04 10° ESE daylight
02 Jul - 10:38:20 10° WSW 10:53:31 40° S 11:03:18 10° ESE daylight
02 Jul - 12:55:09 10° WSW 13:05:20 25° SSW 13:12:13 10° SSE daylight
03 Jul - 05:02:18 10° SSE 05:11:19 15° SE 05:19:55 10° ESE daylight
03 Jul - 07:08:34 10° SSW 07:24:31 32° SSE 07:37:28 10° ESE daylight
03 Jul - 09:21:40 10° WSW 09:38:24 42° S 09:49:55 10° ESE daylight
03 Jul - 11:37:40 10° WSW 11:51:18 35° SSW 12:00:07 10° SE daylight
03 Jul - 13:56:12 10° WSW 14:02:04 15° SW 14:06:40 10° SSW daylight
04 Jul - 05:54:49 10° SSW 06:09:01 26° SSE 06:21:49 10° E daylight
04 Jul - 08:05:38 10° SW 08:22:52 40° SSE 08:35:55 10° ESE daylight
04 Jul - 10:20:31 10° WSW 10:36:36 41° S 10:47:16 10° SE daylight
04 Jul - 12:37:36 10° W 12:48:35 25° SW 12:56:06 10° SSE daylight
